ONEWEB-0086, 45456

Orbit data source: Space-Track

ONEWEB-0086, 45456 is a payload satellite owned by One Web (UK) in LEO that was launched on Sat, 21 Mar 2020 UTC via a SOYUZ-2-1B launch vehicle from the Tyuratam Missile And Space Complex (TTMTR). Payload-class satellites include a variety of spacecraft equipped with specific instruments for various scientific and technological missions. These include communications satellites like Starlink; space stations such as the ISS; scientific satellites like the Hubble; Earth observation satellites from companies like Planet Labs, Umbra, and HawkEye 360; GPS; miniature CubeSats for education and research; and military/defense satellites.

Loading next visibility...
Identifier
45456, 2020-020AJ
Orbit
LEO
Country
Flag of UKUK
Related business
Manufacturer
One Web
Mission
Operational Commercial Communications
Bus & Motor
ARROW, Unknown motor
Mass
148 kg wet, ~140 kg dry
Launch date (UTC)
2020-03-21 (6 years ago)
Launch vehicle
SOYUZ-2-1B
Launch site
Tyuratam Missile And Space Complex (TTMTR)
Object type
Payload
Rocket body
Debris
Shape & HBR
Trap Box + 2 Pan, 6.7 m
Radar Cross Section
3.464 m², Large (>1 m²)

Expand to show TLE details & history
Last TLE update: 6 days ago

TLE from 6 days ago
0 ONEWEB-0086
1 45456U 20020AJ  26155.10501984  .00000922  00000-0  25655-2 0  9993
2 45456  87.8921  23.6665 0001336  43.5537 316.5697 13.11423922300894
Epoch: 2026-06-04T02:31Z
TLE epoch observation values (Epoch: 2026-06-04T02:31:13.714Z)
Latitude
0.00007°
Longitude
93.30529°
Altitude
1,219.808 km
Speed
7.245 km/s
True Right ascension
01h 34m 39s
True Declination
0° 00' 00"
Sunlit
Object was in daylight at epoch
Visualization orbit readout
Latitude
Unknown
Longitude
Unknown
Altitude
Unknown
Speed
Unknown
Apparent Right ascension
Unknown
Apparent Declination
Unknown
Sunlit
N/A
Visualization observer readout
Local Sidereal Time
13:53:14
Azimuth
Unknown
Elevation
Unknown
Doppler factor
Unknown
Orbital elements
Apogee altitude
1,215.788 km
Perigee altitude
1,213.76 km
Semi-major axis
7,592.911 km
Eccentricity
0.00013
Inclination
87.8921°
RAAN
23.6665°
Arg. of periapsis
43.5537°
True anomaly
316.55917°
Mean anomaly
316.5697°
Eccentric anomaly
316.56444°
Mean motion
3.28043 °/min
Orbital period
109.74 mins
BSTAR
0.0025655
Loading maneuver chart data...
Computing Atmospheric mass density...
Loading historical data...
Loading historical data...
Loading historical data...
Loading historical data...
Loading historical data...
Loading historical data...
Loading historical data...

Documentation

Showing up to 5 results
|